Powrót do katalogu

ONEWEB-0349

AktywnyŁącznośćPO
NORAD 49281·PAYLOAD·🇬🇧 United Kingdom

Wystrzelony Oct 14, 2021 z Vostochny Cosmodrome

Loading…

Następne Przeloty (najbliższe 24 godziny)

TLE

ŚwieżeSource: CelesTrak SupGP

Epoka: Sep 14, 2026, 18:43 UTC

1 49281C 21090C   26257.78002732  .00001847  00000+0  45482-2 0  2578
2 49281  87.9136 256.5689 0002021  90.7831 305.0044 13.20767546    12

Śledź ONEWEB-0349 w czasie rzeczywistym z AllMySat

Download on the App Store